CAPE
0 0 0 0 0 0 0 0 0 0 0 109 0 0 114 352 546 90 950 1276 1503 1371 1147 725 736 932 795 625 278 47 0 0 0 1 29 300 290 237 150 67 60 49 0 0 0 0 0 0 0
0 0 0 0 0 0 0 0 0 0 0 39 64 76 116 466 462 290 0 1694 1748 1341 717 715 838 900 699 500 224 0 0 0 0 90 162 326 218 161 83 13 0 0 0 0 0 0 44 83 95
0 0 0 0 0 0 0 0 0 0 15 48 0 0 106 512 734 118 794 2187 1578 1171 811 981 814 787 649 414 188 0 0 0 33 153 360 181 65 11 0 0 0 0 38 83 83 45 22 39 22
0 0 0 0 0 0 0 0 0 0 2 32 0 43 908 899 995 1795 1717 2125 1469 901 1257 933 983 905 647 404 116 0 0 1 49 218 229 32 0 0 0 0 0 92 312 334 156 30 0 0 19
0 0 0 0 0 0 0 0 0 0 0 18 0 48 963 1227 1254 1530 1779 1779 1008 649 1083 897 913 989 632 347 16 0 5 30 65 82 28 0 0 0 0 43 134 363 497 434 221 114 88 58 38
0 0 0 0 0 0 0 0 0 0 0 6 4 2 1219 1747 1357 1620 1900 1590 610 1026 598 765 929 979 578 254 2 6 38 61 47 4 0 0 0 0 19 140 268 342 309 123 32 0 0 0 0
0 0 0 0 0 0 0 0 0 0 0 0 1 1 1388 1698 1479 1593 1813 1251 480 713 413 737 809 902 666 249 57 53 79 26 0 0 0 0 0 0 21 67 91 36 2 0 0 0 0 0 0
0 0 0 0 0 0 0 0 0 0 0 1 0 43 991 1548 1618 1564 1425 855 682 277 149 242 463 483 525 347 161 106 50 6 0 0 0 0 0 0 0 0 0 0 0 0 0 0 0 0 0
0 0 0 0 0 0 0 0 0 0 0 0 0 701 851 1690 1679 1572 1388 896 659 197 75 50 53 142 161 379 232 55 3 0 0 0 0 0 0 0 0 0 0 0 0 0 0 0 0 1 17
0 0 0 0 0 0 0 0 0 0 0 0 0 1162 1006 1090 1470 1602 1416 1106 865 312 26 0 0 0 20 15 48 9 0 0 0 0 0 0 1 3 0 0 0 0 0 0 0 0 29 92 249
0 0 0 0 0 0 0 0 0 0 0 0 0 848 874 1197 1706 1619 1507 1268 892 493 83 22 0 0 0 0 0 0 0 0 8 20 0 10 38 0 0 0 0 0 0 18 68 69 148 324 234
0 0 0 0 0 0 0 0 0 0 0 0 0 592 654 906 1558 1596 1454 1438 1073 635 190 103 17 13 0 0 0 0 0 2 136 236 20 341 14 4 0 26 62 0 62 142 134 171 215 426 192
0 0 0 0 0 0 0 0 0 0 0 0 0 0 795 1131 990 1519 1694 1490 1103 681 298 200 42 188 18 0 1 0 8 40 91 232 110 217 0 56 1 3 0 0 0 39 268 615 1372 1244 851
0 0 0 0 0 0 0 0 0 0 0 0 0 0 344 1101 869 1277 2034 1611 1206 696 368 376 174 439 52 0 132 116 83 169 193 222 177 261 42 17 14 1 0 0 0 188 433 1628 1266 839 975
0 0 0 0 0 0 0 0 0 0 0 0 0 0 4 332 1049 1098 1777 1524 1150 931 790 766 654 1013 274 1336 538 440 206 318 319 499 390 264 87 80 62 0 0 25 676 1064 1479 1323 1219 791 715
0 0 0 0 0 0 0 0 0 0 0 0 0 0 0 76 970 1244 1564 2109 1612 1212 1112 1123 933 1139 924 1053 1020 693 553 460 658 798 673 315 53 198 15 659 610 1092 1053 1184 865 430 269 335 348
0 0 0 0 0 0 0 0 0 0 0 0 0 0 0 0 370 846 1947 2208 1758 1526 1369 1494 1215 1432 1271 1247 1317 1203 583 933 586 383 389 175 136 467 969 1237 1192 1072 999 354 231 171 217 248 464
9 12 11 0 0 0 0 0 0 0 0 0 0 0 0 0 0 725 1704 1655 1803 1686 1737 1629 1519 1451 1457 1254 1421 1575 671 786 185 107 477 392 615 809 1268 1078 853 710 376 304 160 245 353 295 298
118 34 20 13 0 0 0 0 0 0 0 0 0 0 0 0 393 1615 1735 1861 1802 1663 1610 1484 1608 1606 1678 1385 1471 1067 532 238 261 839 1482 1513 1412 1080 842 832 455 125 207 251 198 93 254 144 0
2 54 3 5 9 6 7 0 0 0 0 0 0 0 0 0 473 2232 1662 2336 1985 1666 1435 1667 1876 1790 1941 1666 1465 665 314 379 1025 1087 686 554 660 525 446 314 287 74 278 0 0 0 0 0 0
0 0 0 1 14 9 0 4 2 0 0 0 0 0 0 0 1949 1932 2247 2058 1835 1532 1550 1756 1730 1419 2110 1719 986 590 822 976 1170 978 442 288 204 113 41 1 0 1 0 0 0 0 0 0 0
0 0 7 2 17 0 25 0 19 0 0 0 0 0 0 0 1633 1650 1725 1779 1506 1684 1611 1685 1629 2037 1642 1279 838 1348 1002 940 1112 405 96 28 0 0 0 0 0 0 0 0 0 0 0 0 0
0 0 0 0 0 0 0 24 0 0 0 0 0 0 0 0 33 1763 1534 1767 1701 1585 1418 1697 1765 1945 1271 1183 1762 1754 1517 846 318 34 0 0 0 0 0 0 0 0 0 0 0 0 0 0 0
2 0 0 0 0 0 0 0 0 0 0 0 0 0 0 0 0 1686 1847 1779 1424 1652 1548 1610 1691 1360 1463 1893 2063 1669 1127 661 317 63 0 0 0 0 0 0 0 0 0 0 0 0 0 0 0
20 0 0 4 1 0 0 0 4 0 0 0 0 0 0 0 130 1850 1611 1525 1428 1333 1404 1373 1348 2048 2013 1959 1353 1243 1098 834 316 23 0 0 0 0 0 0 0 0 0 0 0 0 0 0 0
36 12 0 23 52 46 7 5 0 27 0 0 0 0 0 0 1693 1598 1012 1197 1164 1011 1266 1350 1631 1904 1836 1796 1646 1136 718 371 140 2 0 0 0 0 0 0 0 0 0 0 0 0 0 0 0
11 27 30 0 0 4 74 5 0 0 8 0 0 0 0 0 1826 943 254 945 22 489 1366 1573 1813 1752 1740 1520 997 664 382 147 0 0 0 0 0 0 0 0 0 0 0 0 0 0 0 0 0
37 0 58 0 0 21 40 21 0 0 0 3 0 0 0 0 1934 1736 411 393 117 958 1300 1759 1975 1772 1454 1015 523 187 19 0 0 0 0 0 0 0 0 0 0 0 0 0 0 0 0 0 0
94 12 5 2 0 0 0 21 21 11 9 0 0 0 0 0 1690 1698 1502 800 480 1182 1453 1569 1528 1211 909 576 259 42 0 0 0 0 0 0 0 0 0 0 0 0 0 0 0 0 0 0 0
33 35 1 8 0 0 0 0 0 41 0 0 0 11 0 0 1749 1583 1505 986 858 1310 1385 1366 1066 728 545 230 26 0 0 0 0 0 0 0 0 0 0 0 0 0 0 0 0 0 0 0 0
CIN
0 0 0 0 0 0 0 0 0 0 -11 -92 0 -11 -16 -30 -58 -23 -70 -32 -113 -184 -286 -333 -294 -229 -230 -248 -341 -453 0 0 0 -88 -441 -243 -226 -236 -267 -297 -285 -308 0 0 0 0 0 0 0
0 0 0 0 0 0 0 0 0 0 0 -5 -14 -64 -45 -21 -166 -237 0 -16 -132 -191 -302 -343 -277 -225 -241 -250 -339 0 0 0 0 -378 -310 -236 -261 -280 -314 -306 0 0 0 0 0 0 -263 -226 -209
0 0 0 0 0 0 0 0 0 0 -6 -14 0 0 -15 -50 -135 -226 -126 -74 -178 -209 -260 -272 -275 -235 -250 -261 -330 0 0 0 -474 -292 -204 -269 -335 -183 0 0 0 0 -326 -276 -280 -276 -279 -248 -257
0 0 0 0 0 0 0 0 0 0 -3 -19 0 -5 -43 -64 -48 -73 -70 -129 -171 -209 -205 -264 -220 -192 -237 -258 -365 0 0 -61 -376 -244 -236 -357 0 0 0 0 0 -290 -214 -202 -237 -316 0 0 -256
0 0 0 0 0 0 0 0 0 0 0 -18 0 -2 -27 -87 -118 -85 -66 -111 -166 -220 -240 -252 -205 -154 -216 -271 -322 0 -428 -424 -338 -287 -358 0 0 0 0 -340 -272 -202 -167 -173 -212 -243 -246 -263 -279
0 0 0 0 0 0 0 0 0 0 0 -6 -12 -2 -9 -66 -131 -104 -90 -106 -243 -223 -300 -257 -171 -129 -203 -283 -184 -264 -428 -368 -391 -221 0 0 0 0 -391 -290 -240 -204 -212 -276 -222 -24 0 0 0
0 0 0 0 0 0 0 0 0 0 0 0 -6 -7 -20 -50 -125 -91 -76 -115 -206 -244 -322 -247 -185 -121 -160 -269 -411 -403 -358 -385 0 0 0 0 0 0 -390 -346 -322 -341 -76 0 0 0 0 0 0
0 0 0 0 0 0 0 0 0 0 0 -9 -1 -2 -21 -19 -95 -93 -73 -77 -161 -264 -361 -347 -261 -235 -200 -215 -292 -337 -378 -370 0 0 0 0 0 0 0 0 0 0 0 0 0 0 0 0 0
0 0 0 0 0 0 0 0 0 0 0 0 0 -29 -20 -12 -38 -60 -74 -73 -126 -293 -375 -429 -452 -380 -345 -204 -227 -352 -448 0 0 0 0 0 0 0 0 0 0 0 0 0 0 0 0 -50 -104
0 0 0 0 0 0 0 0 0 0 0 0 0 -32 -48 -32 -31 -9 -30 -73 -110 -258 -376 -177 0 -110 -515 -194 -380 -462 0 0 0 0 0 0 -136 -163 -1 0 0 0 0 0 0 0 -322 -317 -198
0 0 0 0 0 0 0 0 0 0 0 0 0 -38 -40 -43 -39 -11 -1 -26 -99 -186 -330 -386 0 0 0 -5 0 0 0 0 -108 -321 0 -395 -283 0 0 0 0 0 0 -87 -237 -251 -224 -139 -93
0 0 0 0 0 0 0 0 0 0 0 0 0 -33 -45 -36 -16 -1 -1 -5 -54 -137 -241 -285 -373 -413 0 0 0 0 0 -83 -213 -198 -368 -147 -331 -91 0 -221 -274 -7 -248 -189 -166 -121 -82 -27 -72
0 0 0 0 0 0 0 0 0 0 0 0 0 0 -18 -52 -22 0 -4 -16 -13 -94 -163 -222 -287 -170 -380 0 -76 0 -315 -312 -270 -203 -260 -210 0 -296 -115 -111 0 0 0 -168 -83 -19 -12 -9 -11
0 0 0 0 0 0 0 0 0 0 0 0 0 0 -18 -25 -14 -7 -7 -19 -25 -48 -144 -155 -196 -102 -283 0 -163 -196 -253 -217 -209 -219 -241 -182 -305 -246 -191 -85 0 0 0 -107 -39 -4 -12 -19 -8
0 0 0 0 0 0 0 0 0 0 0 0 0 0 -1 -4 -4 -3 -4 -42 -40 -46 -35 -79 -68 -9 -109 -8 -42 -65 -170 -152 -155 -126 -156 -179 -277 -271 -309 0 0 -169 -29 -10 -2 -2 -4 -19 -27
0 0 0 0 0 0 0 0 0 0 0 0 0 0 0 -23 -5 -4 -2 -6 -45 -63 -43 -30 -25 -11 -9 -7 -13 -38 -64 -104 -84 -94 -92 -186 -340 -212 -53 -30 -45 -16 -22 -5 -8 -34 -64 -46 -48
0 0 0 0 0 0 0 0 0 0 0 0 0 0 0 0 -52 -17 -24 -53 -62 -60 -48 -25 -21 -7 -9 -6 -11 -15 -64 -44 -101 -141 -155 -251 -253 -95 -17 -4 -7 -15 -4 -19 -53 -61 -73 -28 -13
-12 -22 -7 0 0 0 0 0 0 0 0 0 0 0 0 0 0 -37 -54 -73 -66 -79 -54 -21 -17 -13 -12 -8 -11 -7 -72 -67 -205 -277 -133 -148 -49 -5 -8 -9 -17 -19 -47 -67 -97 -65 -32 -35 -20
-3 -30 -75 -25 0 0 0 0 0 0 0 0 0 0 0 0 -6 -71 -28 -85 -84 -64 -49 -26 -12 -10 -5 -8 -11 -41 -136 -151 -224 -63 -8 -14 -7 -15 -22 -9 -49 -112 -75 -46 -61 -123 -32 -85 0
-10 -19 -125 -43 -22 -17 -8 -1 0 0 0 0 0 0 0 0 -4 -24 -22 -69 -52 -37 -47 -6 -5 -7 -5 -4 -5 -86 -180 -136 -49 -70 -132 -83 -44 -65 -70 -74 -55 -134 -26 -4 0 0 0 0 0
0 0 0 -9 -45 -129 0 -12 -3 0 0 0 0 0 0 0 -16 -35 -54 -79 -48 -36 -10 -5 -14 -12 -2 -3 -35 -96 -57 -33 -38 -64 -149 -155 -186 -237 -315 -121 0 -24 0 0 0 0 0 0 0
0 0 -7 -3 -31 -16 -24 0 -10 0 0 0 0 0 0 0 -25 -55 -9 -47 -35 -3 -7 -4 -9 -4 -2 -13 -47 -45 -33 -52 -29 -184 -327 -413 -50 -1 0 0 0 0 0 0 0 0 0 0 0
0 0 0 0 0 0 0 -16 0 0 0 0 0 0 0 0 -3 -27 -24 -26 -22 -2 -7 -6 -3 -1 -7 -12 -10 -5 -11 -106 -217 -414 0 0 0 0 0 0 0 0 0 0 0 0 0 0 0
-8 0 -3 -1 0 -1 0 0 0 -3 0 0 0 0 0 0 0 -20 -40 -23 -14 -1 -6 -4 -2 -21 -6 -2 -6 -7 -45 -128 -213 -367 0 0 0 0 0 0 0 0 0 0 0 0 0 0 0
-7 0 0 -7 -2 0 0 0 -6 0 0 0 0 0 0 0 -16 -44 -55 -15 -11 -13 -35 -44 -9 -1 -4 -5 -47 -45 -25 -28 -170 -368 0 0 0 0 0 0 0 0 0 0 0 0 0 0 0
-9 -6 0 -15 -10 -12 -14 -17 0 -20 0 0 0 0 0 0 -58 -95 -90 -66 -76 -150 -139 -11 -13 -5 -13 -6 -4 -52 -65 -146 -242 -126 0 0 0 0 0 0 0 0 0 0 0 0 0 0 0
-4 -5 -20 0 0 -29 -17 -10 0 -17 -46 0 0 0 0 0 -66 -141 -231 -61 -343 -178 -93 -44 -27 -12 -4 -29 -56 -122 -187 -255 0 0 0 0 0 0 0 0 0 0 0 0 0 0 0 0 0
-10 0 -6 0 0 -65 -34 -9 -17 0 0 -3 0 0 0 0 -35 -61 -174 -123 -220 -116 -61 -10 -3 -3 -33 -35 -179 -297 -479 0 0 0 0 0 0 0 0 0 0 0 0 0 0 0 0 0 0
-4 -6 -3 -9 0 0 0 -20 -18 -37 -72 -6 0 0 0 0 -10 -46 -67 -13 -13 -6 -2 -8 -4 -10 -79 -83 -285 -445 -25 0 0 0 0 0 0 0 0 0 0 0 0 0 0 0 0 0 0
-11 -17 -2 -4 0 0 0 0 0 -44 0 0 0 -6 0 0 -26 -66 -41 -82 -3 -1 -2 -1 -19 -122 -39 -213 -411 0 0 0 0 0 0 0 0 0 0 0 0 0 0 0 0 0 0 0 0
Wind_Speed
28 26 23 26 28 31 43 43 40 39 32 9 6 5 21 15 5 20 16 11 8 5 7 6 9 11 12 10 9 8 10 11 12 12 13 12 12 14 15 16 18 19 20 20 20 20 20 20 20
27 27 23 27 32 42 44 40 43 40 33 12 13 16 17 15 8 5 12 11 8 5 4 6 7 9 11 10 8 7 9 10 11 11 11 11 12 13 14 15 17 18 18 18 19 19 19 19 18
25 26 25 26 38 46 45 40 33 39 23 13 17 20 21 13 7 8 8 8 7 5 5 5 8 8 9 9 8 7 7 8 9 10 10 11 11 12 14 14 16 16 17 17 18 18 18 17 17
20 22 27 37 40 38 49 45 43 28 30 11 15 17 11 8 7 6 8 5 3 8 6 7 6 7 9 9 8 7 5 7 7 8 9 10 11 11 13 14 15 15 16 17 17 17 17 16 16
23 25 33 38 45 47 41 47 47 43 38 11 15 18 10 6 6 6 8 6 4 7 8 7 6 7 8 10 9 7 5 5 6 7 9 10 10 11 12 13 14 14 15 15 16 16 16 16 16
27 29 40 44 44 43 46 44 42 42 36 16 15 19 9 3 3 4 7 5 7 4 5 8 6 6 7 9 9 6 3 3 5 7 8 9 10 10 11 12 13 13 14 14 15 15 15 15 15
33 34 43 46 44 45 43 43 45 38 36 30 15 16 9 7 1 4 6 9 9 7 3 4 6 4 5 6 7 7 3 3 5 6 7 9 9 10 10 11 11 12 12 13 13 14 14 14 13
33 40 48 46 48 49 38 42 44 42 34 28 29 17 12 6 4 3 4 8 9 9 7 5 5 5 4 4 6 6 4 3 3 5 7 8 8 9 10 10 10 11 11 12 12 13 12 11 12
34 46 51 50 47 44 42 41 38 41 35 30 31 9 3 5 5 5 5 5 7 8 7 6 5 5 4 3 3 3 2 2 2 3 5 7 8 9 9 10 9 10 10 10 11 11 11 13 17
36 47 51 45 45 46 43 44 40 32 30 38 34 4 5 4 5 8 8 8 5 8 9 6 6 8 6 4 4 3 2 2 1 3 5 8 8 9 8 9 9 9 8 8 9 9 12 16 18
33 49 46 44 47 46 46 44 43 36 33 39 37 13 10 12 9 9 10 9 7 7 9 9 8 11 7 5 4 3 2 1 1 2 6 8 7 7 8 8 8 8 6 11 9 11 13 16 22
37 40 44 48 46 45 47 43 46 43 33 35 43 13 14 14 14 14 13 12 9 9 9 8 8 7 7 5 4 3 2 1 1 4 7 6 7 7 6 7 7 7 9 13 14 20 22 24 27
33 39 40 43 47 47 45 44 44 38 31 37 38 38 14 17 16 15 14 12 12 11 10 10 9 7 8 6 4 4 3 2 4 4 6 6 7 6 8 13 13 18 17 16 19 21 24 26 28
36 36 39 39 44 44 46 45 42 39 30 36 25 28 22 18 19 19 12 13 14 13 12 11 10 7 8 5 3 3 3 1 4 4 6 5 7 8 11 12 10 12 15 20 19 23 24 27 27
31 39 37 42 40 44 42 49 49 42 36 35 23 26 27 14 20 20 14 16 15 12 11 10 9 8 7 4 3 1 1 2 3 4 5 7 10 10 11 9 11 14 18 16 19 22 25 25 26
34 30 40 38 38 41 45 59 49 44 42 41 33 25 35 36 17 19 18 14 15 13 13 10 8 8 8 4 4 2 3 2 4 5 6 8 8 9 7 10 11 17 17 19 22 23 25 26 29
31 38 37 39 36 41 48 58 52 44 45 45 42 29 32 28 29 30 20 18 18 16 14 10 10 10 9 7 3 3 1 10 4 7 8 7 7 8 9 14 15 16 17 20 23 28 24 20 21
30 35 37 40 35 36 50 57 51 47 46 49 46 37 30 30 37 28 26 25 18 16 14 12 12 10 9 6 8 5 4 9 7 9 8 9 9 10 11 17 17 19 20 23 23 20 17 20 23
41 33 39 39 39 40 50 52 52 49 46 45 47 39 33 27 29 25 15 20 19 18 16 15 13 13 10 6 5 3 5 4 9 8 12 12 15 14 14 13 16 18 22 24 26 22 18 21 27
33 32 38 33 29 30 42 49 51 49 48 45 44 38 35 31 30 27 11 12 17 17 16 15 14 11 10 7 4 3 2 4 6 8 11 13 14 16 17 18 18 21 21 23 25 25 20 21 27
34 36 36 34 29 35 39 45 44 49 46 42 40 41 39 32 28 29 19 19 19 17 17 16 13 13 8 8 5 3 2 2 5 7 10 14 15 17 17 17 19 19 20 22 22 23 23 18 24
34 34 36 37 30 32 32 41 43 47 48 45 40 39 37 38 27 28 25 20 19 19 17 15 12 13 9 9 6 4 3 1 5 7 10 13 15 16 17 18 18 18 20 21 22 23 22 22 23
32 26 30 33 31 36 38 46 43 43 55 49 46 39 39 37 31 26 25 27 22 21 18 16 14 12 10 8 5 4 0 3 4 7 10 13 14 16 16 17 17 19 19 21 21 23 24 24 23
24 29 33 29 32 40 41 40 48 47 53 52 45 44 40 34 30 27 24 23 20 19 19 17 15 13 11 6 7 3 1 4 5 6 9 10 13 15 16 16 17 19 20 20 21 22 23 24 24
25 25 30 25 29 39 41 43 43 42 46 52 48 44 39 34 31 27 27 26 23 21 18 17 18 13 12 6 4 2 4 7 7 8 8 10 12 13 14 16 17 18 19 20 20 21 23 24 24
31 30 32 24 24 31 38 42 41 29 32 46 47 43 39 41 30 29 29 29 30 24 17 23 19 14 10 7 3 5 5 6 7 8 10 11 12 13 14 15 17 18 19 20 21 22 23 23 24
34 36 25 27 34 33 30 38 39 30 29 35 44 44 44 47 32 30 30 31 33 27 24 20 19 14 11 7 6 7 6 5 7 8 10 12 12 12 13 15 17 18 19 20 21 21 22 22 23
36 28 28 27 25 21 23 32 31 31 30 29 43 41 42 48 33 32 32 33 34 34 29 23 20 16 10 7 6 8 8 7 8 9 10 11 12 11 13 15 17 18 19 20 19 21 21 22 23
28 33 35 33 32 29 21 27 25 22 24 24 37 40 38 47 32 36 31 27 49 37 30 27 18 14 10 10 9 12 10 8 8 9 10 10 10 11 13 15 17 18 18 19 19 20 21 22 23
8 32 33 35 33 33 27 31 25 17 28 29 34 35 35 45 33 39 30 27 32 28 24 21 18 14 14 11 10 10 11 10 9 10 10 10 10 11 13 15 16 17 18 18 19 20 21 22 23
Wind_Direction
277 277 278 273 265 262 251 247 241 248 264 34 21 341 262 24 331 263 257 277 78 83 104 108 103 103 104 106 105 99 90 83 75 72 70 64 59 57 54 56 57 57 55 56 58 56 54 58 60
278 272 273 271 260 252 249 249 246 245 259 309 317 284 316 325 348 22 250 266 76 78 113 113 108 104 105 109 110 108 96 85 77 68 66 64 62 59 60 56 54 54 55 57 56 53 53 54 55
277 273 267 266 257 251 249 251 257 251 270 296 303 298 292 309 9 76 78 105 78 82 100 120 110 106 107 113 114 113 103 88 76 68 63 61 58 59 60 55 55 54 55 51 49 51 52 51 50
278 275 267 259 257 257 247 248 247 265 263 300 289 301 311 331 350 26 86 95 85 101 98 116 114 110 110 116 115 114 109 88 74 65 62 61 58 55 56 56 57 56 50 47 46 45 45 42 35
270 269 260 259 255 251 253 245 246 259 262 275 281 284 315 323 9 67 94 107 115 108 96 112 114 112 114 117 117 116 112 90 72 64 65 61 60 59 57 55 56 54 46 42 37 38 34 29 27
264 261 258 256 257 256 249 247 250 255 264 269 270 270 304 338 21 83 88 84 108 110 107 106 112 116 118 118 117 119 119 91 73 69 64 64 63 60 55 57 58 46 40 34 32 31 26 24 21
260 256 257 257 257 254 252 249 249 257 262 257 281 258 280 277 41 98 95 96 103 100 167 126 115 128 126 124 119 118 119 97 83 75 69 68 64 60 56 58 48 42 40 32 29 23 23 21 19
261 260 257 255 254 252 256 251 248 255 263 255 254 275 256 236 190 128 107 107 99 92 209 195 136 135 139 138 124 118 115 103 79 67 70 64 59 66 65 64 57 51 43 33 31 25 26 24 19
261 256 253 253 253 256 256 256 253 252 259 256 255 321 132 160 197 196 160 137 109 115 141 167 151 141 147 162 166 138 135 109 59 50 62 71 65 78 71 71 71 55 44 43 37 30 27 20 7
257 254 253 257 257 258 257 255 257 254 249 248 255 261 218 203 213 212 198 172 151 138 141 163 154 130 141 159 161 170 179 256 26 38 70 90 90 82 95 73 67 61 62 52 32 24 13 3 360
266 256 259 259 258 258 258 256 256 259 247 244 246 240 239 240 236 224 213 193 177 158 150 153 140 134 135 151 172 209 228 260 355 56 88 108 79 46 63 62 59 61 62 25 21 9 3 1 353
268 264 261 259 260 258 258 260 258 258 250 246 239 234 236 241 233 225 223 204 188 165 163 165 162 154 140 160 180 185 195 190 33 101 106 58 20 67 49 43 83 49 20 15 7 358 355 352 347
277 267 266 262 258 258 258 257 254 261 250 248 243 246 228 238 234 232 223 205 205 173 168 151 159 204 153 154 189 172 154 123 104 80 91 49 104 34 29 357 359 350 357 5 2 359 356 350 352
279 278 270 266 260 256 255 253 254 250 256 239 252 249 229 233 233 236 203 207 193 186 167 164 155 202 167 176 206 167 138 78 83 61 82 64 18 4 359 2 15 12 6 359 0 355 353 347 349
291 274 273 264 261 253 256 248 246 244 251 250 249 241 241 225 223 226 216 186 193 181 183 170 174 203 170 230 178 200 273 33 18 30 51 6 345 5 3 26 21 10 0 5 2 358 353 353 352
285 286 267 266 259 258 252 242 244 243 249 247 243 244 242 245 228 221 219 199 180 183 184 177 176 193 199 212 222 234 264 5 349 14 13 355 13 25 41 25 20 1 1 360 359 1 355 351 345
281 274 271 265 265 259 247 242 242 244 245 244 245 247 240 242 238 233 198 189 185 187 184 203 180 202 218 223 208 260 234 291 348 8 9 22 40 30 18 5 6 3 2 6 357 350 357 8 9
278 276 269 264 270 261 247 242 242 243 241 240 243 241 238 238 241 240 186 175 184 189 191 198 207 206 205 189 137 265 262 292 324 328 2 16 14 15 9 353 356 359 358 350 355 7 22 14 5
266 280 268 275 265 262 247 243 240 240 240 235 236 235 232 234 237 233 229 180 184 188 195 203 208 210 210 193 201 166 251 317 301 333 344 353 352 357 6 13 10 358 346 340 347 357 10 8 359
276 269 259 268 278 275 255 242 236 235 238 234 232 232 230 233 231 231 228 202 203 193 201 202 205 206 215 202 191 191 136 78 37 357 354 1 7 3 1 360 2 349 347 348 345 352 12 14 6
269 261 262 267 294 270 262 244 235 232 234 235 227 231 230 228 223 233 219 212 211 203 201 203 209 207 184 172 209 228 254 36 20 8 357 355 5 1 1 7 360 358 357 359 359 1 11 30 21
261 262 267 264 279 264 256 241 237 227 230 230 230 227 223 227 218 225 232 216 201 204 203 208 200 186 182 180 188 154 167 60 346 8 14 7 10 17 17 16 11 6 4 5 5 5 17 23 23
259 285 273 264 272 256 254 244 239 228 224 226 227 227 225 224 220 212 216 213 204 203 204 202 196 195 189 175 191 220 99 352 27 33 22 18 16 22 23 14 6 8 15 12 17 9 13 20 23
287 277 264 270 264 254 247 241 232 228 224 223 224 226 222 217 217 213 201 200 197 195 198 199 191 191 186 203 146 183 1 77 70 38 29 36 36 30 27 12 9 6 10 16 15 23 22 24 22
276 269 258 267 260 250 244 243 237 233 224 221 221 221 221 219 215 203 202 203 196 192 189 195 200 194 186 177 173 254 108 93 76 68 52 52 40 31 15 6 14 18 23 29 30 32 30 27 28
256 251 242 265 259 255 241 234 226 238 222 221 219 220 218 221 203 201 200 194 192 186 197 209 204 192 178 169 161 113 99 69 72 55 65 45 37 35 24 24 25 25 31 28 32 32 32 31 31
240 237 257 255 248 251 252 231 228 227 230 222 216 216 216 219 206 200 199 199 201 196 197 183 196 193 199 166 134 109 101 73 60 47 46 42 40 35 25 24 28 31 31 37 34 31 29 31 35
242 254 243 235 231 249 251 224 225 224 221 221 211 211 212 216 206 201 193 190 196 189 171 183 191 182 184 145 138 107 98 74 59 51 44 36 31 23 20 28 33 33 30 24 37 34 35 33 30
243 239 236 243 245 248 255 231 225 229 238 227 210 211 208 213 203 203 201 202 177 181 170 169 175 171 178 143 136 107 92 76 63 53 46 35 25 18 24 31 35 36 40 39 40 37 37 35 33
162 246 244 243 244 240 243 231 259 257 234 231 218 210 209 214 204 211 208 200 162 151 162 165 168 158 145 139 121 104 92 83 70 59 50 30 16 16 21 29 37 37 37 38 35 33 29 28 28